Retour au catalogue

ARIANE 5 R/B

ActifHEO
NORAD 44802·ROCKET BODY·🇫🇷 France

Lancé Nov 26, 2019 depuis Guiana Space Centre

Loading…

Prochains Passages (prochaines 24 heures)

TLE

FraisSource: Space-Track

Époque: Sep 13, 2026, 16:28 UTC

1 44802U 19080C   26256.68629981  .00002418  00000-0  40891-3 0  9996
2 44802   5.1694 134.0164 6967100 307.5473   7.6429  2.69506552 61726

Suivez ARIANE 5 R/B en temps réel avec AllMySat

Download on the App Store